TimeEST,TemperatureF,Dew PointF,Humidity,Sea Level PressureIn,VisibilityMPH,Wind Direction,Wind SpeedMPH,Gust SpeedMPH,PrecipitationIn,Events,Conditions,WindDirDegrees,DateUTC
12:51 AM,18.0,10.9,74,30.20,-9999.0,NE,13.8,21.9,N/A,,Unknown,40,2014-03-08 05:51:00
1:51 AM,17.1,9.0,71,30.23,-9999.0,ENE,16.1,-,N/A,,Unknown,70,2014-03-08 06:51:00
2:51 AM,16.0,7.0,68,30.25,-9999.0,NE,15.0,-,N/A,,Unknown,50,2014-03-08 07:51:00
3:51 AM,15.1,7.0,70,30.26,-9999.0,NE,12.7,-,N/A,,Unknown,50,2014-03-08 08:51:00
4:51 AM,16.0,7.0,68,30.27,-9999.0,East,12.7,-,N/A,,Unknown,80,2014-03-08 09:51:00
5:51 AM,16.0,6.1,65,30.28,-9999.0,ENE,10.4,-,N/A,,Unknown,60,2014-03-08 10:51:00
6:51 AM,16.0,7.0,68,30.30,-9999.0,ENE,4.6,-,N/A,,Unknown,60,2014-03-08 11:51:00
7:51 AM,16.0,8.1,71,30.31,-9999.0,ENE,3.5,-,N/A,,Unknown,60,2014-03-08 12:51:00
8:51 AM,17.1,9.0,71,30.32,-9999.0,North,4.6,-,N/A,,Unknown,10,2014-03-08 13:51:00
9:51 AM,17.1,9.0,71,30.32,-9999.0,NNE,8.1,-,N/A,,Unknown,20,2014-03-08 14:51:00
10:51 AM,18.0,8.1,65,30.32,-9999.0,NNE,6.9,-,N/A,,Unknown,20,2014-03-08 15:51:00
11:51 AM,19.0,8.1,62,30.32,-9999.0,North,8.1,-,N/A,,Unknown,10,2014-03-08 16:51:00
12:51 PM,19.0,9.0,65,30.30,-9999.0,North,10.4,-,N/A,,Unknown,350,2014-03-08 17:51:00
1:51 PM,19.0,8.1,62,30.28,-9999.0,North,13.8,-,N/A,,Unknown,360,2014-03-08 18:51:00
2:51 PM,19.9,9.0,62,30.25,-9999.0,North,19.6,-,N/A,,Unknown,350,2014-03-08 19:51:00
3:51 PM,19.0,9.0,65,30.24,-9999.0,NNW,16.1,-,N/A,,Unknown,340,2014-03-08 20:51:00
4:51 PM,19.0,8.1,62,30.22,-9999.0,NNW,13.8,-,N/A,,Unknown,340,2014-03-08 21:51:00
5:51 PM,19.0,7.0,59,30.22,-9999.0,NNW,8.1,17.3,N/A,,Unknown,340,2014-03-08 22:51:00
6:51 PM,17.1,7.0,65,30.21,-9999.0,Variable,4.6,-,N/A,,Unknown,0,2014-03-08 23:51:00
7:51 PM,12.0,6.1,77,30.21,-9999.0,Calm,Calm,-,N/A,,Unknown,0,2014-03-09 00:51:00
8:51 PM,14.0,7.0,74,30.19,-9999.0,Calm,Calm,-,N/A,,Unknown,0,2014-03-09 01:51:00
9:51 PM,10.9,6.1,81,30.19,-9999.0,SW,3.5,-,N/A,,Unknown,230,2014-03-09 02:51:00
10:51 PM,18.0,5.0,57,30.15,-9999.0,WNW,4.6,-,N/A,,Unknown,290,2014-03-09 03:51:00
11:51 PM,19.9,6.1,55,30.14,-9999.0,Variable,5.8,-,N/A,,Unknown,0,2014-03-09 04:51:00